Temperature
18 18 18 18 18 18 17 17 17 17 17 17 17 17 17 17 17 17 17 17 17 17 17 17 17 17 16 16 16 16 16 16 16 16 16 16 16 15 15 15 15 15 15
18 18 18 18 18 18 17 17 17 17 17 17 17 17 17 17 17 17 17 17 17 17 17 17 17 17 16 16 16 16 16 16 16 16 16 16 15 15 15 15 15 15 15
18 18 18 18 18 18 17 17 17 17 17 17 17 17 17 17 17 17 17 17 17 17 17 17 16 16 16 16 16 16 16 16 16 16 16 16 15 15 15 15 15 15 15
18 18 18 18 18 18 17 17 17 17 17 17 17 17 17 17 17 17 17 17 17 17 17 16 16 16 16 16 16 16 16 16 16 16 16 16 15 15 15 15 15 15 15
18 18 18 17 17 17 17 17 17 17 17 17 17 17 17 17 17 17 17 17 17 17 16 16 16 16 16 16 16 16 16 16 16 16 16 16 15 15 15 15 15 15 15
18 18 18 17 17 17 17 17 17 17 17 17 17 17 17 17 17 17 17 17 17 16 16 16 16 16 16 16 16 16 16 16 16 16 15 15 15 15 15 15 15 15 15
18 18 17 17 17 17 17 17 17 17 17 17 17 17 17 17 17 17 17 17 17 17 16 16 16 16 16 16 16 16 16 16 16 15 15 15 15 15 15 15 15 15 15
18 18 18 17 17 17 17 17 17 17 17 17 17 17 17 17 17 17 17 17 17 17 17 16 16 16 16 16 16 16 16 16 15 15 15 15 15 15 15 15 15 15 15
18 18 18 18 17 17 17 17 17 17 17 17 17 17 17 17 17 17 17 17 17 17 17 17 16 16 16 16 16 16 16 15 15 15 15 15 15 15 15 15 15 15 15
18 17 17 17 17 17 17 17 17 17 17 17 17 17 17 17 17 17 17 17 17 17 17 17 17 16 16 16 16 16 16 16 15 15 15 15 15 15 15 15 15 15 14
17 17 17 17 17 17 17 17 17 17 17 17 17 17 17 17 17 17 17 17 17 17 17 17 16 16 16 16 16 16 16 15 15 15 15 15 15 15 15 15 14 14 14
17 17 17 17 17 17 17 17 17 17 17 17 17 17 17 17 17 17 17 17 17 17 17 17 17 16 16 16 16 16 16 15 15 15 15 15 15 15 15 14 14 14 14
17 17 17 17 17 17 17 17 17 17 17 17 17 17 17 17 17 17 17 17 17 17 17 16 16 16 16 16 16 16 16 15 15 15 15 15 15 14 14 14 14 14 14
17 17 17 17 17 17 17 17 17 17 17 17 17 17 17 17 17 17 17 17 17 16 16 16 16 16 16 16 16 16 15 15 15 15 14 14 14 14 14 14 13 13 13
17 17 17 17 17 17 17 17 17 17 17 17 17 17 17 17 17 17 17 17 17 17 16 16 16 16 16 15 15 15 15 15 15 14 14 14 14 13 13 13 13 12 12
17 17 17 17 17 17 17 17 17 17 17 17 17 17 17 17 17 17 17 17 17 17 16 16 16 15 15 15 15 15 14 14 14 14 13 13 13 13 12 12 12 12 12
17 17 17 17 17 17 17 17 17 17 17 17 17 17 17 17 17 17 17 16 16 16 16 16 15 15 15 14 14 14 14 14 13 13 13 12 12 12 12 12 11 11 11
17 17 17 17 17 17 17 17 16 16 16 16 16 16 16 16 16 16 16 16 16 16 16 16 15 14 14 14 14 13 13 13 13 12 12 12 11 11 11 11 10 10 10
17 16 16 16 16 16 16 16 16 16 16 16 16 16 16 16 16 16 16 16 16 16 15 15 15 14 14 13 13 13 12 12 12 11 11 11 10 10 10 10 10 9 9
16 16 16 16 16 16 16 16 16 16 16 16 15 15 15 15 15 15 15 15 15 15 15 14 14 14 13 13 12 12 12 11 11 10 10 10 9 9 9 9 9 8 8
16 16 16 16 16 16 16 16 16 16 15 15 15 15 15 15 15 15 15 15 15 14 14 14 13 13 12 12 12 11 11 10 10 9 9 9 9 8 8 8 8 7 7
16 16 16 15 15 16 15 15 15 15 15 15 15 15 15 14 14 14 14 14 14 14 14 13 13 13 12 12 11 11 11 10 9 8 8 8 8 8 7 7 7 7 6
16 15 15 15 15 15 15 15 15 15 15 14 14 14 14 14 14 14 14 13 13 13 13 13 12 12 12 11 11 10 10 9 9 8 8 7 7 7 7 6 6 6 6
15 15 15 15 15 15 15 15 14 14 14 14 14 14 14 14 13 13 13 13 12 12 12 12 12 11 11 10 10 10 9 9 8 8 7 7 6 6 6 6 5 5 5
15 15 15 15 15 14 14 14 14 14 14 13 13 13 13 13 13 12 12 12 12 11 11 11 10 10 10 10 9 9 8 8 7 7 7 6 6 6 5 5 5 5 5
15 15 15 14 14 14 14 13 13 13 13 13 13 12 12 12 11 11 11 11 11 10 10 10 9 9 9 9 8 8 8 8 7 6 6 6 6 5 5 5 5 5 5
Wind_Speed
4 4 4 4 4 4 4 5 5 5 4 4 4 5 5 6 6 6 7 10 10 11 10 10 9 10 10 9 9 9 8 8 8 8 8 7 7 6 6 5 5 4 4
6 5 4 4 3 4 4 4 4 4 3 3 2 4 5 5 6 6 6 8 10 11 11 11 10 10 10 10 9 9 9 8 8 8 7 7 6 6 6 6 5 5 5
8 7 4 3 4 4 4 4 4 3 2 2 2 3 3 4 5 6 6 6 8 10 11 11 11 11 11 10 10 9 9 9 9 9 8 8 7 7 7 7 6 6 6
10 8 5 4 5 5 4 3 2 2 1 2 2 1 2 3 4 5 6 6 7 8 9 11 11 11 11 11 10 10 10 11 10 10 10 9 9 8 8 8 7 7 8
10 9 6 5 6 4 3 3 2 2 2 2 2 1 1 2 3 5 5 6 7 7 8 9 10 11 11 11 10 11 11 11 11 11 10 10 9 9 9 9 9 9 9
10 9 6 6 6 4 3 2 2 2 2 2 1 1 0 1 2 3 5 6 6 7 7 7 7 9 10 11 11 11 11 11 11 11 10 10 10 9 9 9 9 9 9
10 10 6 5 6 4 5 5 3 2 1 2 2 1 1 1 1 2 4 4 6 7 8 8 8 7 7 9 10 10 10 11 11 11 10 9 9 9 9 8 8 8 8
10 10 7 5 5 4 5 5 3 3 2 2 3 2 1 2 1 1 2 4 5 5 6 7 7 7 7 6 7 9 10 10 9 9 9 9 9 8 8 8 8 7 7
10 9 9 7 6 5 5 6 5 5 3 2 2 3 3 3 1 1 1 2 3 3 4 5 6 6 6 6 6 6 8 8 8 7 7 8 8 8 7 6 6 5 5
9 10 9 9 7 5 6 6 5 4 4 3 2 1 2 3 2 0 1 0 1 1 2 3 4 5 5 5 5 6 6 7 6 6 5 5 5 5 5 4 4 4 4
7 9 9 8 7 6 6 6 6 5 4 4 4 2 2 1 1 2 1 0 1 1 1 1 2 2 4 4 4 4 5 5 4 4 4 4 4 3 3 2 2 1 1
4 6 7 7 7 6 6 6 6 7 5 5 4 3 3 3 3 3 2 2 1 1 1 1 0 1 2 3 4 4 5 5 5 5 5 5 5 5 5 4 4 4 4
4 6 6 6 6 6 7 6 6 6 6 6 5 4 4 3 3 3 3 2 1 0 1 2 2 1 2 2 3 5 6 7 8 9 8 8 8 9 9 9 9 8 9
5 6 6 7 7 7 7 6 5 6 5 6 7 5 4 4 4 4 4 4 2 1 0 0 2 3 4 5 6 8 9 10 11 11 11 11 11 12 12 12 12 12 11
4 5 6 6 6 6 6 6 5 6 6 6 5 5 4 3 4 4 4 5 5 4 2 1 1 2 4 6 8 9 10 12 12 12 12 12 13 13 13 13 12 12 12
4 5 6 6 6 6 6 6 5 5 6 5 4 5 4 3 3 3 4 4 4 4 3 1 1 2 4 7 10 11 11 13 13 13 13 13 13 13 12 12 12 12 12
5 5 6 6 6 6 6 6 6 6 6 5 4 5 4 3 3 2 3 3 3 3 4 2 2 3 4 6 9 11 11 12 12 13 13 13 13 12 12 12 11 11 11
4 5 5 5 5 5 6 6 6 6 6 6 5 5 4 3 3 2 3 3 3 4 5 5 2 2 4 5 7 8 9 10 11 13 13 12 12 12 12 12 11 11 11
3 3 4 5 5 5 5 6 6 6 6 5 5 6 5 5 4 3 4 4 4 5 4 6 4 2 3 4 5 7 9 9 10 11 12 12 12 13 12 11 11 10 10
3 3 4 4 4 4 5 5 5 5 5 4 4 4 4 5 5 6 5 5 6 7 7 7 6 3 3 3 4 5 6 5 6 8 10 11 12 12 12 11 10 9 9
3 3 3 3 3 3 4 5 5 6 6 5 4 4 4 6 7 6 6 7 7 7 7 7 5 4 3 4 4 3 6 6 5 5 5 6 7 8 8 8 7 7 7
2 3 3 3 2 2 4 7 7 6 6 6 5 4 4 5 8 9 9 9 9 8 8 6 5 6 4 4 4 5 5 5 3 2 3 3 4 3 4 5 5 6 6
3 3 3 3 3 4 6 6 7 6 6 5 5 5 5 6 8 8 11 12 10 9 7 6 7 5 5 4 6 5 4 3 3 2 2 2 2 2 3 3 5 5 6
3 3 3 4 4 4 6 8 9 6 5 5 5 6 7 6 7 10 10 10 9 8 7 6 6 5 5 6 5 6 6 6 4 3 2 2 2 1 2 4 5 6 6
4 3 4 4 5 4 6 8 8 6 6 6 5 6 7 8 10 13 12 12 11 9 13 15 14 13 12 12 11 8 6 6 3 2 2 2 1 1 1 2 5 7 7
4 4 4 4 4 4 5 7 8 6 7 6 6 6 8 9 11 12 11 11 11 8 8 10 11 11 12 11 9 6 6 5 3 2 1 2 1 0 0 1 3 5 6
Wind_Direction
162 160 153 144 132 129 127 121 123 119 115 124 140 149 152 157 161 169 180 181 180 177 173 174 172 170 169 169 169 169 167 167 168 170 172 172 172 172 174 175 174 177 178
173 171 168 166 164 159 154 144 139 133 128 129 142 160 166 166 169 173 184 189 188 186 184 184 183 180 180 180 180 179 180 180 180 180 182 184 188 188 188 193 195 198 198
186 181 179 183 186 174 159 138 125 126 135 139 144 156 165 172 176 181 187 191 194 197 195 195 194 192 192 193 192 192 192 193 193 194 197 200 202 204 205 208 213 213 213
191 182 184 192 186 167 155 140 128 124 130 140 149 165 172 175 188 190 193 197 199 203 205 205 205 205 204 205 204 204 204 204 203 204 209 213 216 218 218 220 225 225 224
191 185 189 190 179 165 160 164 142 143 156 159 158 166 181 182 196 199 201 207 207 206 209 217 217 216 216 218 217 216 214 212 210 212 216 220 222 225 225 228 232 234 235
192 187 190 187 177 166 167 161 146 130 142 151 142 99 16 218 197 211 215 215 216 217 217 222 224 226 226 228 227 226 223 221 217 218 221 222 224 226 229 233 238 239 240
189 183 187 182 178 180 180 165 144 138 132 126 101 58 17 5 222 230 222 218 223 224 223 225 224 226 232 236 236 234 230 227 223 222 224 224 225 223 226 232 238 239 242
190 191 185 182 180 176 169 169 158 145 148 152 140 120 27 340 309 241 216 219 226 221 223 227 223 223 228 238 243 239 234 234 234 226 223 225 226 224 228 233 235 237 241
192 191 189 185 181 179 186 187 177 163 167 177 171 151 159 219 277 330 254 228 216 212 222 221 221 223 223 231 240 243 237 237 235 231 227 225 225 226 231 232 235 237 240
194 195 190 186 182 183 189 195 186 173 160 177 186 187 171 160 164 240 350 351 194 226 230 223 223 220 215 219 227 233 233 232 232 228 220 207 205 209 215 220 229 241 246
198 198 194 187 184 188 193 193 182 181 177 178 178 169 156 129 145 162 201 320 47 357 238 215 211 211 207 207 213 221 220 208 203 194 183 172 169 176 180 188 193 203 252
197 197 194 190 188 191 195 197 193 190 191 186 186 179 173 172 183 175 187 201 188 34 54 54 80 189 190 185 190 188 178 167 158 142 127 116 112 109 105 97 90 77 63
199 203 196 192 194 198 198 191 189 195 193 191 194 200 199 196 169 166 165 173 172 128 62 50 36 54 100 126 147 145 136 135 128 120 112 106 101 98 94 88 83 78 70
204 199 196 198 199 198 199 191 192 200 195 198 201 194 198 204 187 177 170 161 162 166 111 92 48 57 80 95 104 113 110 118 118 115 110 105 104 101 96 91 85 81 75
200 197 199 199 201 198 196 190 199 202 192 199 199 193 199 204 197 196 182 173 169 185 203 181 135 59 86 93 99 103 106 111 112 111 110 108 105 103 100 95 89 84 78
197 193 198 197 199 198 195 190 195 195 186 193 192 192 203 207 196 194 191 189 181 172 176 145 114 81 95 102 97 100 103 103 103 108 109 108 107 105 101 95 89 84 77
198 200 198 195 196 196 190 185 191 187 187 191 190 188 201 195 186 190 179 178 175 157 157 132 87 79 86 99 96 97 98 97 95 100 105 104 102 101 99 93 89 83 76
200 198 188 187 196 195 187 186 190 188 188 192 193 184 194 182 173 172 162 166 162 153 149 145 125 88 80 101 101 95 92 93 93 92 95 98 97 98 96 93 88 82 76
185 186 179 185 194 193 186 187 184 184 185 187 186 182 180 165 163 153 147 144 137 130 126 138 135 105 88 97 95 90 85 81 88 88 87 89 93 95 94 93 87 81 75
172 183 183 186 186 184 181 177 172 171 169 168 168 167 164 164 166 155 146 138 130 124 121 127 128 120 106 100 108 110 98 81 80 81 82 84 87 88 88 85 81 75 69
164 165 159 163 168 174 179 169 164 161 157 149 145 149 150 150 154 151 147 143 140 135 133 135 135 128 132 133 138 134 122 106 77 71 83 75 78 78 73 71 67 63 60
129 128 140 152 157 170 157 159 156 153 151 148 142 130 124 128 128 124 127 131 138 145 150 147 146 148 154 147 138 141 138 128 112 49 84 70 64 70 58 59 50 48 42
121 116 116 124 126 128 132 136 143 144 141 142 141 136 125 117 116 115 105 99 97 106 130 144 146 153 154 162 149 139 129 114 119 119 110 80 44 50 24 24 30 29 22
123 121 116 116 116 116 122 126 122 123 124 122 128 134 130 122 120 119 109 95 83 73 89 104 121 121 124 133 133 132 124 105 88 61 84 96 41 19 3 357 11 12 9
115 112 112 118 121 119 120 125 123 118 113 106 105 112 120 118 120 119 114 108 97 83 82 93 99 102 108 118 124 120 123 125 110 69 42 106 93 12 344 336 348 359 2
121 115 104 104 115 119 118 123 124 127 123 116 104 103 112 121 124 122 124 124 119 112 107 97 87 84 88 93 103 121 140 139 129 125 115 116 114 88 30 333 329 342 353
Height
1572 1574 1575 1577 1578 1579 1581 1582 1583 1585 1586 1587 1589 1590 1590 1591 1592 1593 1594 1595 1595 1597 1598 1599 1600 1602 1603 1604 1605 1606 1606 1608 1608 1609 1610 1611 1611 1612 1612 1613 1613 1613 1614
1573 1575 1576 1578 1579 1580 1582 1583 1584 1586 1587 1588 1589 1590 1591 1592 1593 1593 1594 1595 1596 1597 1598 1600 1601 1602 1603 1604 1605 1606 1607 1608 1608 1609 1610 1611 1611 1612 1612 1613 1613 1613 1614
1573 1575 1577 1578 1580 1581 1583 1584 1585 1586 1587 1588 1589 1591 1592 1593 1593 1594 1595 1596 1596 1597 1598 1599 1600 1601 1602 1603 1604 1605 1606 1607 1608 1609 1609 1610 1611 1611 1612 1612 1612 1613 1613
1573 1575 1577 1579 1580 1581 1583 1584 1585 1586 1587 1589 1590 1591 1592 1593 1594 1594 1595 1596 1596 1597 1598 1599 1600 1601 1602 1603 1604 1604 1605 1606 1607 1608 1609 1609 1610 1610 1611 1611 1612 1612 1612
1573 1575 1577 1578 1580 1581 1583 1584 1585 1586 1588 1589 1590 1591 1592 1593 1593 1594 1595 1595 1596 1597 1598 1599 1600 1601 1601 1602 1603 1604 1605 1605 1606 1607 1608 1608 1609 1609 1610 1610 1610 1611 1611
1572 1574 1576 1578 1579 1581 1582 1584 1585 1586 1587 1589 1589 1590 1591 1592 1593 1593 1594 1595 1596 1596 1597 1598 1599 1600 1601 1601 1602 1603 1603 1604 1605 1606 1606 1607 1607 1608 1608 1609 1609 1609 1609
1572 1573 1575 1577 1578 1580 1582 1583 1584 1585 1587 1588 1589 1590 1590 1591 1592 1592 1593 1594 1595 1596 1596 1597 1598 1599 1600 1600 1601 1601 1602 1603 1604 1604 1605 1605 1606 1606 1607 1607 1607 1607 1608
1570 1572 1574 1575 1577 1579 1581 1582 1583 1584 1586 1587 1588 1589 1589 1591 1590 1591 1592 1593 1594 1594 1595 1596 1597 1598 1598 1599 1600 1600 1601 1601 1602 1603 1603 1604 1604 1604 1605 1605 1605 1605 1605
1568 1570 1572 1574 1576 1578 1579 1581 1582 1583 1584 1586 1587 1588 1588 1588 1589 1590 1590 1591 1592 1593 1594 1594 1595 1596 1597 1598 1598 1599 1599 1600 1600 1601 1601 1602 1602 1603 1603 1603 1603 1603 1603
1566 1568 1570 1572 1574 1576 1577 1579 1580 1582 1583 1584 1585 1586 1588 1588 1588 1588 1589 1590 1591 1591 1592 1593 1594 1594 1595 1596 1596 1597 1597 1598 1598 1599 1599 1599 1600 1600 1601 1601 1601 1601 1601
1563 1566 1568 1570 1572 1573 1575 1577 1578 1580 1581 1582 1583 1584 1585 1586 1586 1587 1587 1588 1589 1590 1590 1591 1592 1593 1593 1594 1595 1595 1596 1596 1596 1597 1597 1597 1598 1598 1598 1598 1598 1598 1598
1560 1563 1565 1567 1569 1571 1573 1574 1576 1577 1579 1580 1581 1582 1583 1584 1584 1585 1586 1586 1587 1588 1588 1589 1590 1591 1591 1592 1592 1593 1594 1594 1594 1595 1595 1595 1596 1596 1596 1596 1595 1595 1595
1557 1560 1562 1564 1566 1568 1570 1572 1573 1574 1576 1577 1578 1579 1580 1581 1582 1583 1584 1584 1585 1586 1586 1587 1588 1588 1589 1590 1590 1591 1591 1592 1592 1593 1593 1593 1593 1593 1593 1593 1593 1592 1592
1554 1557 1559 1561 1563 1565 1567 1568 1570 1571 1573 1574 1575 1576 1577 1579 1580 1580 1581 1582 1583 1583 1584 1585 1585 1586 1587 1588 1588 1589 1589 1590 1590 1590 1591 1591 1591 1591 1591 1591 1590 1590 1589
1551 1553 1556 1558 1560 1561 1563 1565 1566 1567 1569 1570 1572 1573 1574 1575 1577 1577 1578 1579 1580 1580 1581 1582 1583 1584 1584 1585 1586 1586 1587 1587 1588 1589 1589 1589 1589 1589 1588 1588 1588 1587 1587
1548 1550 1552 1554 1556 1558 1559 1561 1562 1564 1565 1566 1568 1569 1570 1572 1573 1574 1575 1576 1577 1578 1578 1579 1580 1581 1582 1583 1583 1584 1585 1585 1586 1586 1587 1587 1587 1587 1586 1586 1585 1585 1584
1545 1546 1548 1550 1552 1554 1555 1556 1558 1560 1561 1562 1564 1565 1567 1568 1569 1570 1571 1572 1573 1574 1575 1576 1577 1579 1580 1581 1581 1582 1583 1583 1584 1584 1585 1585 1585 1585 1584 1584 1583 1582 1581
1542 1543 1545 1546 1548 1550 1551 1552 1554 1556 1557 1559 1560 1562 1563 1564 1566 1567 1568 1569 1570 1571 1572 1572 1574 1576 1577 1579 1579 1580 1581 1581 1582 1582 1583 1583 1583 1582 1582 1582 1581 1580 1579
1539 1541 1542 1543 1545 1546 1548 1549 1550 1552 1553 1555 1556 1558 1559 1560 1562 1563 1564 1566 1567 1568 1569 1570 1571 1573 1574 1576 1577 1578 1578 1579 1580 1580 1581 1581 1581 1581 1580 1580 1579 1578 1577
1537 1538 1539 1540 1542 1543 1544 1545 1547 1548 1550 1551 1553 1554 1555 1556 1558 1560 1561 1563 1564 1565 1566 1567 1568 1570 1571 1573 1574 1575 1576 1577 1577 1578 1579 1579 1579 1579 1579 1578 1578 1577 1576
1534 1536 1536 1537 1539 1540 1541 1542 1543 1545 1546 1547 1549 1550 1551 1553 1555 1556 1558 1559 1561 1562 1563 1564 1566 1567 1569 1570 1571 1572 1573 1574 1575 1576 1576 1577 1577 1577 1577 1577 1576 1575 1574
1532 1533 1534 1535 1535 1536 1538 1539 1540 1542 1543 1544 1545 1547 1548 1550 1552 1553 1555 1557 1559 1560 1561 1562 1563 1564 1566 1567 1569 1570 1571 1572 1573 1575 1575 1575 1575 1575 1575 1575 1574 1574 1573
1530 1530 1531 1532 1533 1534 1535 1536 1537 1538 1540 1541 1543 1544 1546 1548 1549 1551 1552 1554 1555 1557 1559 1561 1561 1562 1564 1565 1566 1567 1569 1570 1570 1571 1573 1573 1574 1574 1574 1573 1572 1572 1571
1528 1529 1529 1530 1531 1532 1532 1533 1535 1536 1537 1539 1541 1543 1544 1546 1547 1549 1550 1551 1553 1555 1556 1558 1560 1561 1562 1563 1565 1566 1567 1568 1569 1570 1571 1572 1572 1572 1572 1572 1571 1570 1569
1527 1527 1528 1528 1529 1530 1531 1532 1533 1534 1535 1537 1539 1541 1542 1544 1545 1547 1548 1550 1551 1553 1555 1556 1558 1559 1560 1561 1563 1564 1565 1566 1567 1568 1569 1570 1570 1570 1570 1570 1570 1569 1568
1525 1526 1526 1527 1527 1528 1529 1530 1531 1532 1533 1535 1537 1539 1541 1542 1544 1546 1547 1548 1550 1552 1553 1555 1556 1557 1559 1560 1561 1563 1564 1565 1566 1567 1567 1568 1568 1569 1569 1569 1568 1567 1566